Location: Wildlife_Club
(35.6000°N, 81.4330°W)
Time: 03:56:47
(UTC-04:00)

Amateur Radio Satellites - All Passes

Search period start: 28 May 2015 03:26
Search period end: 29 May 2015 03:26
Location: Wildlife_Club, 35.6000°N, 81.4330°W

Satellite Date Start Highest point End Downlink Frequencies (MHz)
Time Altitude Azimuth
PHONESAT 2.4 28 May 03:32:40 03:36:09 89° 177° (S) 03:39:39 2401.200-2431.200
Oscar 19 28 May 03:47:13 03:51:46 32° 290° (WNW) 03:56:13 437.125/150
BEESAT 3 28 May 03:56:58 04:01:00 66° 243° (WSW) 04:04:57 437.485
STARS 28 May 03:58:48 04:03:15 83° 257° (WSW) 04:07:44 437.465
ITAMSAT 1 28 May 04:03:02 04:08:18 81° 283° (WNW) 04:13:31 435.822/435.867
JAS-2 28 May 04:21:26 04:25:25 23° 95° (E) 04:29:42 435.910
VERMONT LUNAR 28 May 04:29:30 04:32:26 32° 360° (N) 04:35:22 437.305
Cosmos 2499 28 May 04:29:40 04:35:14 25° 273° (W) 04:40:41 435.465 / 435.565
MOZHAYETS 4 28 May 04:34:55 04:38:43 27° 71° (ENE) 04:42:36
KKS-1 28 May 04:35:08 04:38:29 20° 266° (W) 04:41:44 437.445
AIST 2 28 May 04:44:11 04:48:24 84° 57° (ENE) 04:52:32 435.215
Gurwin Techsat 1B 28 May 04:47:48 04:52:30 32° 290° (WNW) 04:57:07 435.225
BEESAT 2 28 May 04:48:01 04:51:11 21° 248° (WSW) 04:54:13 435.950
SO-50 28 May 05:05:43 05:08:35 15° 316° (NW) 05:11:21 436.795
AO-7 28 May 05:08:46 05:16:53 54° 102° (ESE) 05:25:02 29.400- 29.500
PHONESAT 2.4 28 May 05:11:14 05:14:30 36° 354° (N) 05:17:45 2401.200-2431.200
HORYU 2 28 May 05:20:52 05:25:19 75° 284° (WNW) 05:29:42 437.375
Cosmos 2491 28 May 05:45:46 05:51:12 18° 64° (ENE) 05:57:08 435.465 / 435.565
JAS-2 28 May 06:06:00 06:10:42 35° 289° (WNW) 06:15:29 435.910
VERMONT LUNAR 28 May 06:06:47 06:09:57 55° 16° (NNE) 06:13:06 437.305
MOZHAYETS 4 28 May 06:12:10 06:15:55 24° 265° (W) 06:19:35
CUBESAT XI-V 28 May 06:16:58 06:20:43 26° 71° (ENE) 06:24:35 437.345
ISS 28 May 06:23:09 06:26:15 41° 37° (NE) 06:29:22 145.825
CUTE-I 28 May 06:26:50 06:28:46 12° 89° (E) 06:31:06 437.470
STRAND 1 28 May 06:27:46 06:30:39 16° 66° (ENE) 06:33:46 437.568
YUBILEINY 28 May 06:35:11 06:39:50 17° 82° (E) 06:45:05 435.215
Cubesat XI-IV 28 May 06:46:13 06:50:05 21° 93° (E) 06:54:07 437.490
PHONESAT 2.4 28 May 06:49:40 06:53:01 43° 11° (N) 06:56:20 2401.200-2431.200
AO-7 28 May 07:02:10 07:09:23 32° 298° (WNW) 07:16:22 29.400- 29.500
PRISM 28 May 07:08:20 07:12:08 40° 73° (ENE) 07:16:00 437.425
M-CUBED/EXP-1 PRIME 28 May 07:23:25 07:27:21 39° 70° (ENE) 07:31:03 437.505
AUBIESAT-1 28 May 07:30:22 07:34:17 40° 70° (ENE) 07:37:58 437.475
AIST 1 28 May 07:37:06 07:40:10 19° 74° (ENE) 07:43:22
Cosmos 2491 28 May 07:40:28 07:49:20 83° 265° (W) 07:58:06 435.465 / 435.565
VERMONT LUNAR 28 May 07:44:13 07:47:02 28° 211° (SSW) 07:49:50 437.305
CUBESAT XI-V 28 May 07:54:16 07:58:07 26° 266° (W) 08:01:55 437.345
RS-15 28 May 07:57:15 08:05:16 26° 105° (ESE) 08:13:52 29.354- 29.394
ISS 28 May 08:00:26 08:02:27 15° 231° (SW) 08:04:22 145.825
CUTE-I 28 May 08:04:06 08:09:27 69° 286° (WNW) 08:14:47 437.470
STRAND 1 28 May 08:04:29 08:09:28 54° 260° (W) 08:14:28 437.568
BRITE-PL 28 May 08:09:39 08:11:51 13° 86° (E) 08:14:21 437.365/2234.400
Cubesat XI-IV 28 May 08:25:20 08:30:24 43° 288° (WNW) 08:35:26 437.490
YUBILEINY 28 May 08:26:57 08:35:44 84° 276° (W) 08:44:32 435.215
PHONESAT 2.4 28 May 08:27:48 08:31:11 54° 207° (SSW) 08:34:35 2401.200-2431.200
PRISM 28 May 08:45:55 08:47:50 13° 269° (W) 08:49:33 437.425
Cosmos 2504 28 May 08:56:46 08:58:39 11° 82° (E) 09:01:15 435.465 / 435.565
DOVE 4 28 May 08:59:34 09:02:09 15° 88° (E) 09:04:56 437.250
M-CUBED/EXP-1 PRIME 28 May 08:59:50 09:02:18 15° 261° (W) 09:04:28 437.505
CANX-2 28 May 08:59:53 09:01:41 13° 90° (E) 09:03:42 2200.000
CUTE 1.7 + AOD 2 28 May 09:03:18 09:05:01 12° 90° (E) 09:06:57 437.475
AUBIESAT-1 28 May 09:06:55 09:09:11 14° 262° (W) 09:11:09 437.475
AIST 1 28 May 09:14:02 09:17:54 30° 269° (W) 09:21:42
SEEDS 28 May 09:22:53 09:25:39 18° 93° (E) 09:28:34 437.485
COMPASS 1 28 May 09:33:49 09:36:43 19° 93° (E) 09:39:44 437.405
Cosmos 2491 28 May 09:41:08 09:45:03 13° 280° (W) 09:48:12 435.465 / 435.565
GOMX 1 28 May 09:41:09 09:46:28 68° 100° (E) 09:51:27 467.674
AAUSAT CUBESAT 2 28 May 09:44:35 09:47:43 21° 94° (E) 09:50:58 437.432
BRITE-PL 28 May 09:45:26 09:51:03 71° 284° (WNW) 09:56:20 437.365/2234.400
JUGNU 28 May 09:47:20 09:48:25 11° 166° (SSE) 09:49:38 437.505
HO-68 28 May 10:00:14 10:07:21 65° 102° (ESE) 10:14:26 435.675
CINEMA 3 28 May 10:03:30 10:07:39 32° 95° (E) 10:11:39 145.822/145.860
UNISAT 6 28 May 10:03:44 10:05:49 13° 67° (ENE) 10:08:08 437.425
DELFI C3 28 May 10:05:07 10:05:23 10° 90° (E) 10:05:55 145.870
RS-15 28 May 10:05:50 10:16:42 73° 302° (WNW) 10:27:52 29.354- 29.394
PCSat 28 May 10:17:20 10:22:25 40° 57° (ENE) 10:27:31 145.827
YUBILEINY 28 May 10:29:25 10:34:10 15° 298° (WNW) 10:38:15 435.215
CANX-2 28 May 10:33:53 10:37:53 42° 286° (WNW) 10:41:51 2200.000
DOVE 4 28 May 10:35:27 10:40:22 51° 286° (WNW) 10:44:58 437.250
CUTE 1.7 + AOD 2 28 May 10:37:12 10:41:13 43° 286° (WNW) 10:45:11 437.475
POPSAT HIP 1 28 May 10:40:35 10:42:31 13° 67° (ENE) 10:44:41 437.405
DUCHIFAT 1 28 May 10:41:23 10:43:16 13° 68° (ENE) 10:45:22 145.980
ZACube-1 28 May 10:41:28 10:44:54 24° 94° (E) 10:48:21 437.345
Cosmos 2504 28 May 10:42:48 10:51:11 79° 95° (E) 10:59:03 435.465 / 435.565
ANTELSAT 28 May 10:44:41 10:48:58 37° 73° (ENE) 10:53:15 437.575/2403.000
CUBEBUG 2 28 May 10:45:30 10:49:44 45° 98° (E) 10:53:50 437.445
Oscar 11 28 May 10:50:03 10:54:18 58° 100° (E) 10:58:32 145.826/435.025
DX 1 28 May 10:52:08 10:54:25 14° 92° (E) 10:56:54 434.975-435.025
SEEDS 28 May 10:57:50 11:01:32 30° 287° (WNW) 11:05:10 437.485
BUGSAT 1 28 May 10:57:58 10:59:53 13° 68° (ENE) 11:02:02 437.445
COMPASS 1 28 May 11:08:50 11:12:26 28° 288° (WNW) 11:15:58 437.405
VELOX 1 28 May 11:12:33 11:13:59 12° 90° (E) 11:15:41 145.980
TIGRISAT 28 May 11:16:20 11:21:03 81° 77° (ENE) 11:25:43 435.000
AAUSAT CUBESAT 2 28 May 11:19:53 11:23:18 25° 288° (WNW) 11:26:39 437.432
GOMX 1 28 May 11:21:18 11:23:58 14° 296° (WNW) 11:26:18 467.674
QB50P1 28 May 11:22:12 11:26:11 40° 73° (ENE) 11:30:14 145.935-145.965
POLYITAN 1 28 May 11:24:55 11:29:00 44° 74° (ENE) 11:33:08 437.675
UWE-3 28 May 11:29:45 11:34:05 66° 284° (WNW) 11:38:15 435.000/436.395/437.385
JUGNU 28 May 11:33:09 11:36:42 16° 176° (S) 11:40:16 437.505
FUNcube-1 28 May 11:35:51 11:40:08 74° 283° (WNW) 11:44:18 145.935
DELFI C3 28 May 11:36:57 11:40:50 48° 285° (WNW) 11:44:42 145.870
UNISAT 6 28 May 11:37:34 11:42:11 56° 260° (W) 11:46:46 437.425
CINEMA 3 28 May 11:41:08 11:44:39 21° 291° (WNW) 11:47:56 145.822/145.860
AISAT 28 May 11:42:43 11:46:33 28° 96° (E) 11:50:27 437.250
HO-68 28 May 11:49:13 11:54:34 22° 298° (WNW) 11:59:38 435.675
NANOSAT C BR1 28 May 11:52:40 11:56:56 87° 258° (WSW) 12:01:15 145.865
SO-50 28 May 11:57:31 12:01:48 29° 51° (NE) 12:06:06 436.795
HUMSAT D 28 May 11:59:03 12:03:13 88° 288° (WNW) 12:07:19 437.325/437.525
PCSat 28 May 12:01:19 12:05:38 24° 252° (WSW) 12:09:46 145.827
QB50P2 28 May 12:01:51 12:06:06 64° 259° (W) 12:10:23 145.880/145.840
CUSAT 1 28 May 12:01:53 12:05:53 16° 82° (E) 12:10:39 437.405
POPSAT HIP 1 28 May 12:13:53 12:18:01 47° 261° (W) 12:22:11 437.405
DUCHIFAT 1 28 May 12:14:35 12:18:43 47° 261° (W) 12:22:51 145.980
UKube-1 28 May 12:15:38 12:19:57 62° 284° (WNW) 12:24:13 .
ZACube-1 28 May 12:17:45 12:21:12 23° 290° (WNW) 12:24:31 437.345
ANTELSAT 28 May 12:22:29 12:25:52 19° 267° (W) 12:29:04 437.575/2403.000
RS-15 28 May 12:23:30 12:31:39 22° 330° (NNW) 12:39:38 29.354- 29.394
CUBEBUG 2 28 May 12:23:43 12:26:02 14° 293° (WNW) 12:28:08 437.445
DX 1 28 May 12:26:45 12:30:55 42° 287° (WNW) 12:35:02 434.975-435.025
Oscar 11 28 May 12:28:54 12:30:03 11° 293° (WNW) 12:30:55 145.826/435.025
BUGSAT 1 28 May 12:31:03 12:35:00 43° 262° (W) 12:39:02 437.445
50 SAT 28 May 12:34:49 12:38:37 55° 285° (WNW) 12:42:21 437.505
Cosmos 2504 28 May 12:40:01 12:45:28 18° 293° (WNW) 12:50:15 435.465 / 435.565
CUBEBUG 1 28 May 12:40:19 12:44:45 64° 100° (E) 12:49:09 437.445
VELOX 1 28 May 12:46:32 12:50:56 53° 286° (WNW) 12:55:17 145.980
SRMSAT 28 May 12:53:21 12:56:40 15° 173° (S) 13:00:00 437.500
ESTCUBE 1 28 May 12:55:09 12:59:42 75° 285° (WNW) 13:04:13 437.505/2401.250
GONETS M04 28 May 12:57:06 13:04:40 35° 87° (E) 13:12:26
QB50P1 28 May 12:59:50 13:02:16 14° 268° (W) 13:04:32 145.935-145.965
POLYITAN 1 28 May 13:03:00 13:05:11 13° 269° (W) 13:07:08 437.675
SPROUT 28 May 13:13:32 13:17:35 38° 98° (E) 13:21:38 437.525
AISAT 28 May 13:19:26 13:23:01 23° 290° (WNW) 13:26:29 437.250
DANDE 28 May 13:19:49 13:26:31 51° 91° (E) 13:34:34 436.750
JUGNU 28 May 13:21:33 13:25:00 16° 186° (S) 13:28:25 437.505
Oscar 19 28 May 13:22:07 13:26:30 29° 70° (ENE) 13:30:59 437.125/150
TISAT 1 28 May 13:30:49 13:34:53 43° 98° (E) 13:38:57 437.305
SO-50 28 May 13:37:59 13:42:22 31° 247° (WSW) 13:46:35 436.795
CUSAT 1 28 May 13:40:12 13:47:28 89° 277° (W) 13:55:51 437.405
ITAMSAT 1 28 May 13:42:16 13:44:14 13° 64° (ENE) 13:46:32 435.822/435.867
SWISSCUBE 28 May 13:48:26 13:48:51 10° 89° (E) 13:49:38 437.505
CUBEBUG 1 28 May 14:19:28 14:20:38 11° 294° (WNW) 14:21:32 437.445
AO-7 28 May 14:20:52 14:21:05 10° 50° (NE) 14:21:57 29.400- 29.500
Gurwin Techsat 1B 28 May 14:26:15 14:30:54 33° 70° (ENE) 14:35:38 435.225
SRMSAT 28 May 14:41:31 14:45:06 16° 183° (S) 14:48:40 437.500
RS-15 28 May 14:45:42 14:50:20 13° 6° (N) 14:55:11 29.354- 29.394
SPROUT 28 May 14:50:39 14:53:23 16° 292° (WNW) 14:55:56 437.525
GONETS M04 28 May 14:52:54 15:01:19 46° 284° (WNW) 15:09:41
O/OREOS (USA 219) 28 May 14:53:01 14:55:10 14° 101° (E) 14:57:34 437.305
Oscar 19 28 May 15:01:17 15:05:49 29° 264° (W) 15:10:17 437.125/150
DANDE 28 May 15:03:46 15:10:11 31° 292° (WNW) 15:17:20 436.750
ITUPSAT 1 28 May 15:07:02 15:11:51 74° 103° (ESE) 15:16:38 437.325
TISAT 1 28 May 15:08:00 15:10:20 14° 292° (WNW) 15:12:28 437.305
Cosmos 2499 28 May 15:08:08 15:15:42 45° 91° (E) 15:22:52 435.465 / 435.565
BEESAT 28 May 15:13:41 15:18:29 89° 106° (ESE) 15:23:15 436.000
ITAMSAT 1 28 May 15:18:04 15:23:13 72° 259° (W) 15:28:24 435.822/435.867
SWISSCUBE 28 May 15:22:30 15:27:15 68° 284° (WNW) 15:32:00 437.505
CUSAT 1 28 May 15:26:27 15:31:33 18° 299° (WNW) 15:36:28 437.405
STARS 28 May 15:52:18 15:55:43 22° 95° (E) 15:59:12 437.465
AO-7 28 May 16:04:20 16:12:18 56° 68° (ENE) 16:20:24 29.400- 29.500
Gurwin Techsat 1B 28 May 16:06:27 16:10:55 27° 265° (W) 16:15:18 435.225
JAS-2 28 May 16:13:29 16:20:10 66° 75° (ENE) 16:26:05 435.910
HORYU 2 28 May 16:15:55 16:20:22 69° 75° (ENE) 16:24:49 437.375
KKS-1 28 May 16:27:47 16:32:17 82° 284° (WNW) 16:36:43 437.445
O/OREOS (USA 219) 28 May 16:29:54 16:34:14 45° 294° (WNW) 16:38:34 437.305
SRMSAT 28 May 16:31:50 16:33:32 11° 193° (SSW) 16:35:07 437.500
ITUPSAT 1 28 May 16:48:00 16:49:12 11° 295° (WNW) 16:50:05 437.325
RS-15 28 May 16:58:40 17:08:19 30° 39° (NE) 17:18:36 29.354- 29.394
Cosmos 2499 28 May 17:01:54 17:09:01 31° 286° (WNW) 17:15:31 435.465 / 435.565
BEESAT 2 28 May 17:03:44 17:04:14 10° 109° (ESE) 17:05:00 435.950
STARS 28 May 17:28:22 17:32:10 28° 289° (WNW) 17:35:51 437.465
CUTE-I 28 May 17:45:32 17:48:40 17° 66° (ENE) 17:52:03 437.470
BEESAT 3 28 May 17:46:48 17:50:40 44° 115° (ESE) 17:54:36 437.485
AO-7 28 May 17:58:29 18:05:31 29° 265° (W) 18:12:20 29.400- 29.500
JAS-2 28 May 18:01:19 18:05:36 17° 268° (W) 18:09:17 435.910
Cubesat XI-IV 28 May 18:05:24 18:09:40 26° 69° (ENE) 18:14:04 437.490
MOZHAYETS 4 28 May 18:09:08 18:13:44 83° 281° (W) 18:18:18
BEESAT 2 28 May 18:37:51 18:41:52 57° 302° (WNW) 18:45:57 435.950
AIST 2 28 May 18:39:19 18:43:12 36° 114° (ESE) 18:47:09 435.215
YUBILEINY 28 May 18:41:12 18:49:15 42° 75° (ENE) 18:57:25 435.215
Cosmos 2491 28 May 18:43:41 18:49:54 23° 84° (E) 18:56:33 435.465 / 435.565
RS-15 28 May 19:10:32 19:22:18 83° 243° (WSW) 19:34:29 29.354- 29.394
BRITE-PL 28 May 19:18:32 19:19:48 11° 63° (ENE) 19:21:25 437.365/2234.400
CUTE-I 28 May 19:23:08 19:28:20 56° 259° (W) 19:33:35 437.470
BEESAT 3 28 May 19:26:20 19:28:55 16° 312° (NW) 19:31:23 437.485
Cubesat XI-IV 28 May 19:44:50 19:49:39 34° 263° (W) 19:54:26 437.490
CUBESAT XI-V 28 May 19:52:50 19:57:34 84° 283° (WNW) 20:02:16 437.345
DOVE 4 28 May 20:02:43 20:04:48 13° 65° (ENE) 20:07:12 437.250
AIST 1 28 May 20:05:11 20:06:46 12° 87° (E) 20:08:36
STRAND 1 28 May 20:17:50 20:22:57 65° 102° (ESE) 20:28:04 437.568
AIST 2 28 May 20:18:43 20:21:55 20° 311° (NW) 20:25:03 435.215
HO-68 28 May 20:25:52 20:32:11 36° 66° (ENE) 20:38:37 435.675
PRISM 28 May 20:28:25 20:32:35 76° 284° (WNW) 20:36:45 437.425
AAUSAT CUBESAT 2 28 May 20:34:55 20:35:46 11° 67° (ENE) 20:36:53 437.432
Cosmos 2491 28 May 20:37:23 20:46:07 66° 280° (W) 20:54:54 435.465 / 435.565
YUBILEINY 28 May 20:38:12 20:46:00 37° 272° (W) 20:53:37 435.215
Cosmos 2504 28 May 20:40:24 20:45:19 20° 69° (ENE) 20:50:33 435.465 / 435.565
M-CUBED/EXP-1 PRIME 28 May 20:41:57 20:45:06 42° 104° (ESE) 20:48:19 437.505
GOMX 1 28 May 20:45:28 20:50:25 52° 74° (ENE) 20:55:42 467.674
AUBIESAT-1 28 May 20:48:16 20:51:26 43° 104° (ESE) 20:54:40 437.475
BRITE-PL 28 May 20:52:25 20:57:29 86° 255° (WSW) 21:03:01 437.365/2234.400
CINEMA 3 28 May 21:02:04 21:05:59 24° 70° (ENE) 21:10:03 145.822/145.860
CANX-2 28 May 21:23:21 21:27:37 89° 78° (ENE) 21:31:53 2200.000
RS-15 28 May 21:26:08 21:33:33 18° 258° (WSW) 21:40:06 29.354- 29.394
CUTE 1.7 + AOD 2 28 May 21:26:35 21:30:51 87° 78° (ENE) 21:35:08 437.475
ZACube-1 28 May 21:35:17 21:37:57 16° 68° (ENE) 21:40:47 437.345
DOVE 4 28 May 21:36:50 21:41:55 74° 258° (WSW) 21:47:15 437.250
AIST 1 28 May 21:40:01 21:44:03 42° 281° (W) 21:48:08
CUBEBUG 2 28 May 21:40:34 21:44:39 30° 72° (ENE) 21:48:48 437.445
Oscar 11 28 May 21:42:08 21:45:55 31° 72° (ENE) 21:49:46 145.826/435.025
SEEDS 28 May 21:46:14 21:50:26 66° 259° (W) 21:54:37 437.485
COMPASS 1 28 May 21:56:21 22:00:31 63° 260° (W) 22:04:40 437.405
STRAND 1 28 May 21:59:00 22:01:40 14° 295° (WNW) 22:04:05 437.568
AAUSAT CUBESAT 2 28 May 22:06:53 22:10:58 54° 260° (W) 22:15:03 437.432
HO-68 28 May 22:13:12 22:19:51 39° 262° (W) 22:26:27 435.675
DELFI C3 28 May 22:21:00 22:24:59 64° 76° (ENE) 22:28:58 145.870
UWE-3 28 May 22:23:08 22:27:47 69° 76° (ENE) 22:32:27 435.000/436.395/437.385
GOMX 1 28 May 22:25:35 22:28:57 17° 271° (W) 22:32:11 467.674
FUNcube-1 28 May 22:28:00 22:32:30 59° 75° (ENE) 22:37:01 145.935
Cosmos 2504 28 May 22:32:16 22:39:19 60° 267° (W) 22:46:25 435.465 / 435.565
AISAT 28 May 22:38:24 22:41:25 19° 69° (ENE) 22:44:35 437.250
CINEMA 3 28 May 22:38:28 22:42:59 34° 264° (W) 22:47:32 145.822/145.860
Cosmos 2491 28 May 22:44:05 22:45:12 10° 303° (WNW) 22:45:27 435.465 / 435.565
HUMSAT D 28 May 22:47:39 22:51:44 43° 74° (ENE) 22:55:50 437.325/437.525
ISS 28 May 22:59:58 23:03:10 66° 136° (SE) 23:06:24 145.825
UKube-1 28 May 23:07:14 23:11:32 75° 76° (ENE) 23:15:53 .
ZACube-1 28 May 23:09:34 23:13:58 45° 262° (W) 23:18:22 437.345
TIGRISAT 28 May 23:12:17 23:15:24 20° 93° (E) 23:18:35 435.000
GONETS M04 28 May 23:13:01 23:16:29 13° 60° (ENE) 23:20:40
50 SAT 28 May 23:16:11 23:20:03 50° 75° (ENE) 23:23:55 437.505
CUBEBUG 2 28 May 23:17:22 23:21:19 25° 266° (W) 23:25:09 437.445
DX 1 28 May 23:18:56 23:23:17 73° 258° (WSW) 23:27:40 434.975-435.025
Oscar 11 28 May 23:19:01 23:22:11 19° 267° (W) 23:25:12 145.826/435.025
UNISAT 6 28 May 23:32:57 23:36:57 36° 97° (E) 23:40:54 437.425
CUBEBUG 1 28 May 23:33:42 23:37:39 35° 73° (ENE) 23:41:41 437.445
VELOX 1 28 May 23:40:50 23:45:16 88° 262° (W) 23:49:45 145.980
NANOSAT C BR1 28 May 23:41:34 23:44:33 19° 93° (E) 23:47:38 145.865
QB50P2 28 May 23:50:42 23:54:13 25° 95° (E) 23:57:46 145.880/145.840
ESTCUBE 1 28 May 23:51:41 23:56:07 69° 76° (ENE) 00:00:36 437.505/2401.250
POPSAT HIP 1 29 May 00:02:11 00:06:03 33° 97° (E) 00:09:55 437.405
DUCHIFAT 1 29 May 00:02:26 00:06:16 32° 97° (E) 00:10:06 145.980
SPROUT 29 May 00:05:26 00:08:39 21° 70° (ENE) 00:12:00 437.525
DANDE 29 May 00:06:54 00:13:34 35° 69° (ENE) 00:18:59 436.750
FUNcube-1 29 May 00:07:47 00:09:16 11° 271° (W) 00:10:25 145.935
AISAT 29 May 00:13:41 00:17:46 35° 263° (W) 00:21:51 437.250
ANTELSAT 29 May 00:16:07 00:20:27 67° 284° (WNW) 00:24:40 437.575/2403.000
BUGSAT 1 29 May 00:16:17 00:20:07 32° 97° (E) 00:23:56 437.445
VERMONT LUNAR 29 May 00:20:04 00:22:17 17° 146° (SE) 00:24:34 437.305
TISAT 1 29 May 00:20:37 00:23:54 23° 70° (ENE) 00:27:17 437.305
CUSAT 1 29 May 00:24:27 00:31:13 60° 77° (ENE) 00:36:19 437.405
HUMSAT D 29 May 00:25:26 00:27:43 14° 269° (W) 00:29:47 437.325/437.525
ISS 29 May 00:37:55 00:39:54 15° 333° (NNW) 00:41:50 145.825
QB50P1 29 May 00:45:42 00:49:59 70° 283° (WNW) 00:54:11 145.935-145.965
TIGRISAT 29 May 00:48:25 00:52:13 29° 289° (WNW) 00:55:52 435.000
POLYITAN 1 29 May 00:48:54 00:53:09 62° 285° (WNW) 00:57:19 437.675
PCSat 29 May 00:55:37 01:00:58 69° 114° (ESE) 01:06:23 145.827
O/OREOS (USA 219) 29 May 01:04:29 01:07:25 17° 59° (ENE) 01:10:28 437.305
GONETS M04 29 May 01:06:18 01:15:08 79° 83° (E) 01:23:51
UNISAT 6 29 May 01:10:37 01:13:28 17° 292° (WNW) 01:16:07 437.425
CUBEBUG 1 29 May 01:11:16 01:14:10 17° 268° (W) 01:16:55 437.445
PHONESAT 2.4 29 May 01:14:22 01:16:00 13° 143° (SE) 01:17:43 2401.200-2431.200
NANOSAT C BR1 29 May 01:16:41 01:20:27 30° 288° (WNW) 01:24:08 145.865
QB50P2 29 May 01:26:36 01:30:01 23° 290° (WNW) 01:33:19 145.880/145.840
Oscar 19 29 May 01:38:27 01:40:18 12° 89° (E) 01:42:28 437.125/150
POPSAT HIP 1 29 May 01:38:45 01:41:41 18° 291° (WNW) 01:44:28 437.405
DUCHIFAT 1 29 May 01:38:53 01:41:52 18° 291° (WNW) 01:44:39 145.980
SPROUT 29 May 01:40:51 01:44:36 28° 264° (W) 01:48:20 437.525
DANDE 29 May 01:50:15 01:56:46 34° 273° (W) 02:01:52 436.750
BUGSAT 1 29 May 01:52:21 01:55:22 18° 291° (WNW) 01:58:13 437.445
VERMONT LUNAR 29 May 01:56:00 01:59:14 82° 341° (NNW) 02:02:28 437.305
TISAT 1 29 May 01:56:00 01:59:34 25° 265° (W) 02:03:05 437.305
CUSAT 1 29 May 02:09:03 02:12:53 16° 279° (W) 02:15:57 437.405
BEESAT 3 29 May 02:09:36 02:11:26 13° 46° (NE) 02:13:26 437.485
SO-50 29 May 02:10:27 02:13:17 17° 109° (ESE) 02:16:22 436.795
ITUPSAT 1 29 May 02:10:52 02:15:33 60° 74° (ENE) 02:20:15 437.325
BEESAT 29 May 02:17:06 02:21:50 73° 75° (ENE) 02:26:35 436.000
SWISSCUBE 29 May 02:25:56 02:30:41 83° 258° (WSW) 02:35:28 437.505
PCSat 29 May 02:41:31 02:45:00 16° 312° (NW) 02:48:18 145.827
O/OREOS (USA 219) 29 May 02:42:52 02:47:02 38° 255° (WSW) 02:51:09 437.305
Gurwin Techsat 1B 29 May 02:46:22 02:49:31 16° 91° (E) 02:52:55 435.225
STARS 29 May 02:47:25 02:49:49 15° 67° (ENE) 02:52:25 437.465
PHONESAT 2.4 29 May 02:50:16 02:53:45 72° 156° (SSE) 02:57:13 2401.200-2431.200
Cosmos 2499 29 May 02:54:53 03:01:57 74° 82° (E) 03:09:13 435.465 / 435.565
BEESAT 2 29 May 02:59:58 03:03:41 33° 54° (NE) 03:07:22 435.950
AIST 2 29 May 03:05:20 03:06:58 12° 45° (NE) 03:08:45 435.215
GONETS M04 29 May 03:05:26 03:11:05 18° 278° (W) 03:16:11
Oscar 19 29 May 03:15:05 03:20:12 65° 286° (WNW) 03:25:16 437.125/150
